Simultaneous Nadir Overpasses (SNOs) Predictions

Prediction of SNOs between METOP-A and NOAA-19 Satellite Orbit:

Table of predicted SNOs for the next 14.0 days since TLE Epoch: 9/28/2012
Index Date (METOP-A) Time (METOP-A) METOP-A Lat,Lon Date (NOAA-19) Time (NOAA-19) NOAA-19 Lat,Lon Distance(km) Time Diff (sec)
1 10/02/2012 04:59:28 73.53, 98.65 10/02/2012 04:58:17 73.50, 97.22 45.38 71
2 10/02/2012 05:50:17 -73.18, -94.81 10/02/2012 05:49:12 -73.18, -94.82 0.49 65
3 10/02/2012 06:40:57 73.16, 72.47 10/02/2012 06:40:15 73.15, 72.50 1.56 42
4 10/02/2012 07:31:39 -73.16,-120.20 10/02/2012 07:31:16 -73.13,-120.22 3.33 23
5 10/02/2012 08:22:19 73.13, 47.07 10/02/2012 08:22:20 73.14, 46.98 3.20 1
6 10/02/2012 09:13:02 -73.08,-145.71 10/02/2012 09:13:20 -73.08,-145.63 2.63 18
7 10/02/2012 10:03:41 73.11, 21.68 10/02/2012 10:04:24 73.09, 21.58 3.58 43
8 10/02/2012 10:54:24 -73.06,-171.10 10/02/2012 10:55:25 -73.07,-171.14 2.17 61
9 10/02/2012 11:45:11 72.67, -4.57 10/02/2012 11:46:21 72.69, -3.07 49.68 70
10 10/12/2012 02:20:08 -73.37, -41.89 10/12/2012 02:18:55 -73.38, -42.65 24.32 73
11 10/12/2012 03:10:51 73.16, 124.99 10/12/2012 03:09:52 73.18, 125.04 2.33 59
12 10/12/2012 04:01:33 -73.19, -67.63 10/12/2012 04:00:56 -73.18, -67.72 2.95 37
13 10/12/2012 04:52:13 73.13, 99.58 10/12/2012 04:51:56 73.13, 99.63 1.64 17
14 10/12/2012 05:42:56 -73.10, -93.15 10/12/2012 05:43:00 -73.13, -93.12 2.58 4
15 10/12/2012 06:33:35 73.10, 74.17 10/12/2012 06:34:00 73.08, 74.23 3.00 25




NCC Satellite Simultaneous Nadir Overpasses (SNOs) Prediction Service
